This demonstration page uses our WeatherBlox Daily Observations layout. Learn more.

Left ArrowRight Arrow

Hourly Observations for June 2, 2016

Temp ( °F °C ) Dew Point ( °F °C ) Humidity (%) Winds ( mph kmh ) Pressure ( in mb ) Visibility ( mi km ) Precip ( " mm )
12:53 am 00:53 Clear 76 24.4 39 3.9 26 26 Calm 29.85 1011 10 16 0.00 0.00
1:53 am 01:53 Clear 71 21.7 45 7.2 39 39 Calm 29.85 1011 10 16 0.00 0.00
2:53 am 02:53 Clear 68 20 47 8.3 47 47 WNW 3 6 29.86 1011 10 16 0.00 0.00
3:53 am 03:53 Clear 67 19.4 49 9.4 53 53 Calm 29.88 1012 10 16 0.00 0.00
4:53 am 04:53 Clear 68 20 51 10.6 55 55 N 3 6 29.90 1013 10 16 0.00 0.00
5:53 am 05:53 Sunny 64 17.8 52 11.1 65 65 WSW 3 6 29.91 1013 10 16 0.00 0.00
6:53 am 06:53 Sunny 67 19.4 51 10.6 57 57 NNE 3 6 29.92 1013 10 16 0.00 0.00
7:53 am 07:53 Sunny 73 22.8 53 11.7 50 50 N 5 7 29.93 1014 10 16 0.00 0.00
8:53 am 08:53 Sunny 76 24.4 54 12.2 47 47 Calm 29.95 1014 10 16 0.00 0.00
9:53 am 09:53 Sunny 82 27.8 48 8.9 31 31 VRB 7 11 29.95 1014 10 16 0.00 0.00
10:53 am 10:53 Sunny 86 30 47 8.3 26 26 NE 5 7 29.95 1014 10 16 0.00 0.00
11:53 am 11:53 Sunny 90 32.2 44 6.7 20 20 VRB 7 11 29.95 1014 10 16 0.00 0.00
12:53 pm 12:53 Sunny 92 33.3 41 5 17 17 NW 3 6 29.94 1014 10 16 0.00 0.00
1:53 pm 13:53 Sunny 94 34.4 37 2.8 14 14 Calm 29.93 1014 10 16 0.00 0.00
2:53 pm 14:53 Sunny 97 36.1 30 -1.1 9 9 NW 7 11 29.91 1013 10 16 0.00 0.00
3:53 pm 15:53 Sunny 97 36.1 25 -3.9 7 7 W 7 11 29.90 1013 10 16 0.00 0.00
4:53 pm 16:53 Sunny 97 36.1 27 -2.8 8 8 SSW 6 9 29.89 1012 10 16 0.00 0.00
5:53 pm 17:53 Sunny 98 36.7 27 -2.8 8 8 VRB 3 6 29.89 1012 10 16 0.00 0.00
6:53 pm 18:53 Sunny 97 36.1 29 -1.7 9 9 Calm 29.88 1012 10 16 0.00 0.00
7:53 pm 19:53 Sunny 92 33.3 42 5.6 18 18 N 3 6 29.89 1012 10 16 0.00 0.00
8:53 pm 20:53 Clear 82 27.8 45 7.2 27 27 SSW 3 6 29.90 1013 10 16 0.00 0.00
9:53 pm 21:53 Clear 82 27.8 48 8.9 31 31 N 5 7 29.93 1013 10 16 0.00 0.00
10:53 pm 22:53 Clear 74 23.3 49 9.4 41 41 NW 3 6 29.95 1014 10 16 0.00 0.00
11:53 pm 23:53 Clear 75 23.9 49 9.4 40 40 N 7 11 29.96 1014 10 16 0.00 0.00

Powered by AerisWeather